Weather Roundup
Issued by NWS Chicago, IL

Home | Current Version | Previous Version | Text Only | Print | Product List | Glossary Off
Versions: 1 2 3 4 5 6 7 8 9 10 11 12 13 14 15 16 17 18 19 20 21 22 23 24 25 26 27 28 29 30 31 32 33 34 35 36 37 38 39 40 41 42 43 44 45 46 47 48 49 50

000
NZUS59 KLOT 251710
HRRLOT

CHICAGO AREA WEATHER ROUNDUP
NATIONAL WEATHER SERVICE CHICAGO/ROMEOVILLE IL
1100 AM CST THU DEC 25 2014

NOTE: "FAIR" INDICATES FEW OR NO CLOUDS BELOW 12,000 FEET WITH NO
SIGNIFICANT WEATHER AND/OR OBSTRUCTIONS TO VISIBILITY.

* THESE STATIONS ARE NOT UNDER NWS QUALITY CONTROL. THEY ALSO MAY NOT
  REPORT WEATHER SUCH AS PRECIPITATION OR FOG.

ILZ005-006-012>014-019>023-251800-
NORTHEAST ILLINOIS

CITY           SKY/WX    TMP DP  RH WIND       PRES   REMARKS
OHARE          PTSUNNY   36  27  69 SW17G24   29.95S
MIDWAY         CLOUDY    38  29  70 SW20      29.97S
AURORA         CLOUDY    37  29  72 SW14      29.96F
LANSING*       CLOUDY    36  30  77 SW21      29.99S
JOLIET*        CLOUDY    37  29  74 SW10G21   29.98S
WAUKEGAN       CLOUDY    36  27  69 SW20G28   29.91F
DUPAGE AIRPORT PTSUNNY   36  29  75 SW16      29.95S
WHEELING       CLOUDY    36  27  69 SW13      29.96S
KANKAKEE*      CLOUDY    38  32  79 SW18G25   30.02S
MORRIS*        CLOUDY    38  32  79 SW17      29.98R
LEWIS AIRPORT* CLOUDY    37  30  74 SW14      29.97F
NORTHERLY IS     N/A     37  28  70 SW7         N/A
$$

WIZ051-052-058>065-066-070>072-251800-
SOUTHEAST WISCONSIN

CITY           SKY/WX    TMP DP  RH WIND       PRES   REMARKS
MILWAUKEE      PTSUNNY   36  26  67 SW20G25   29.90S
KENOSHA*       CLOUDY    36  28  73 W18G25    29.91S
RACINE*        CLOUDY    36  28  73 SW15G23   29.92R
BURLINGTON     CLOUDY    34  28  79 SW15      29.90F WCI  24
WAUKESHA       CLOUDY    32  27  80 SW12G17   29.90R WCI  23
WEST BEND      PTSUNNY   34  27  75 SW15G24   29.85F WCI  24
$$

INZ001>003-010>013-019-020-251800-
NORTHWEST INDIANA

CITY           SKY/WX    TMP DP  RH WIND       PRES   REMARKS
GARY*          CLOUDY    37  27  65 MISG      29.99R
MICHIGAN CITY* NOT AVBL
RENSSELAER*    NOT AVBL
VALPARAISO     CLOUDY    36  29  75 SW17      30.00R
$$

LMZ740>746-251800-
SOUTHERN LAKE MICHIGAN

STATION/POSITION TIME  SKY/WX   TEMP WIND        PRES    VSBY
                                AIR  DIR/SP/G
                 (UTC)          (F)  (DEG/KT/KT) (MB)    (MI)
HARRISON CRIB    1700            35  230/ 16/ 22   N/A
BURNHAM HARBOR   1700            37  240/  8/ 15   N/A
CALUMET HARBOR   1700            36  200/ 13/ 17 1013.7F
BURNS HARBOR     NOT AVBL
MICHIGAN CITY    1700            35  210/ 18/ 22   N/A
$$

ABBREVIATIONS USED IN REMARKS
   TC - TEMPERATURE IN CELSIUS
  WCI - WIND CHILL INDEX
   HX - HEAT INDEX
  VSB - VISIBILITY
$$


USA.gov is the U.S. government's official web portal to all federal, state and local government web resources and services.